Weather History for Troy, AL

Change the Weather History Date:

Friday, January 31, 2014

  Actual Average Record
Temperature  
Mean Temperature 41 °F 47 °F  
Max Temperature 61 °F 59 °F 75 °F (2002)
Min Temperature 20 °F 36 °F 20 °F (2014)
Degree Days  
Heating Degree Days 24 18  
Month to date heating degree days 768 578  
Since 1 July heating degree days 1549 1492  
Moisture  
Dew Point 26 °F    
Average Humidity 58    
Maximum Humidity 92    
Minimum Humidity 23    
Precipitation  
Precipitation 0.00 in 0.16 in 1.56 in (2008)
Month to date precipitation 3.20 4.55  
Year to date precipitation 3.20 4.55  
Snow  
Snow 0.00 in - - ()
Month to date snowfall 0.3  
Since 1 July snowfall 0.3  
Snow Depth 0.00 in    
Sea Level Pressure  
Sea Level Pressure 30.18 in    
Wind  
Wind Speed 2 mph (ENE)    
Max Wind Speed 9 mph    
Max Gust Speed 12 mph    
Visibility 9 miles    
Events      
T = Trace of Precipitation, MM = Missing Value Source: NWS Daily Summary

Daily Weather History Graph

Daily Weather History Graph

Search for Another Location

Airport:

Trip Planner

Search our weather history database for the weather conditions in past years. The results will help you decide how hot, cold, wet, or windy it might be!

Date:

Astronomy

Jan. 31, 2014 Rise Set
Actual Time 6:38 AM CST 5:17 PM CST
Civil Twilight 6:12 AM CST 5:43 PM CST
Nautical Twilight 5:43 AM CST 6:12 PM CST
Astronomical Twilight 5:14 AM CST 6:41 PM CST
Moon 6:53 AM CST (1/31) 6:32 PM CST (1/31)
Length of Visible Light 11h 30m
Length of Day
10h 39m
New Moon, 1% of the Moon is Illuminated
Jan 31
New Moon
Feb 6
First Quarter
Feb 14
Full
Feb 22
Last Quarter
Mar 1
New

Hourly Weather History & Observations

Time (CST) Temp. Windchill Dew Point Humidity Pressure Visibility Wind Dir Wind Speed Gust Speed Precip Events Conditions
12:53 AM 23.0 °F - 19.9 °F 88% 30.19 in 7.0 mi Calm Calm - N/A   Clear
1:53 AM 23.0 °F - 19.9 °F 88% 30.19 in 7.0 mi Calm Calm - N/A   Clear
2:53 AM 25.0 °F - 21.0 °F 85% 30.18 in 6.0 mi Calm Calm - N/A   Clear
3:53 AM 21.9 °F - 19.0 °F 89% 30.18 in 7.0 mi Calm Calm - N/A   Clear
4:53 AM 23.0 °F - 19.9 °F 88% 30.17 in 7.0 mi Calm Calm - N/A   Clear
5:53 AM 23.0 °F 15.8 °F 19.0 °F 85% 30.22 in 8.0 mi North 5.8 mph - N/A   Clear
6:53 AM 24.1 °F 17.0 °F 21.0 °F 88% 30.24 in 6.0 mi North 5.8 mph - N/A   Clear
7:53 AM 28.0 °F - 26.1 °F 92% 30.26 in 6.0 mi Calm Calm - N/A   Clear
8:53 AM 33.1 °F 27.7 °F 28.9 °F 85% 30.25 in 10.0 mi East 5.8 mph - N/A   Clear
9:53 AM 41.0 °F - 30.9 °F 67% 30.24 in 10.0 mi Calm Calm - N/A   Clear
10:53 AM 48.0 °F - 32.0 °F 54% 30.22 in 10.0 mi East 3.5 mph - N/A   Clear
11:53 AM 53.1 °F - 28.9 °F 40% 30.20 in 10.0 mi Calm Calm - N/A   Clear
12:53 PM 57.0 °F - 25.0 °F 29% 30.16 in 10.0 mi Calm Calm - N/A   Clear
1:53 PM 59.0 °F - 21.9 °F 24% 30.14 in 10.0 mi Variable 3.5 mph - N/A   Clear
2:53 PM 61.0 °F - 25.0 °F 25% 30.12 in 10.0 mi Calm Calm - N/A   Clear
3:53 PM 60.1 °F - 25.0 °F 26% 30.12 in 10.0 mi SE 6.9 mph - N/A   Clear
4:53 PM 55.0 °F - 30.0 °F 38% 30.12 in 10.0 mi ESE 5.8 mph - N/A   Clear
5:53 PM 46.0 °F - 30.9 °F 56% 30.13 in 10.0 mi Calm Calm - N/A   Clear
6:53 PM 41.0 °F - 30.0 °F 65% 30.14 in 10.0 mi Calm Calm - N/A   Clear
7:53 PM 35.1 °F - 28.9 °F 78% 30.17 in 10.0 mi Calm Calm - N/A   Clear
8:53 PM 33.1 °F - 28.0 °F 82% 30.18 in 10.0 mi Calm Calm - N/A   Clear
9:53 PM 30.9 °F - 27.0 °F 85% 30.17 in 10.0 mi Calm Calm - N/A   Clear
10:53 PM 30.9 °F - 28.0 °F 89% 30.15 in 10.0 mi Calm Calm - N/A   Clear
11:26 PM 32.0 °F - 28.9 °F 88% 30.14 in 10.0 mi Calm Calm - N/A   Mostly Cloudy
11:53 PM 34.0 °F - 30.9 °F 89% 30.13 in 10.0 mi Calm Calm - N/A   Overcast